• In Uzbekistan
  • List of Countries
  • For 7 days
  • Water Temperature
  • Satellite Maps
  • Weather Map
  • Weather Widgets
  • user-avatar
    Login

    Hourly Weather Saurimo

    Today, 27 April, Thursday

    Time Temperature Precipitation Wind Pressure Humidity
    00:00 +22°C° 1.3 mm 1 mps 671 mmHg 93%
    01:00 +21°C° 0 mm 1 mps 671 mmHg 95%
    02:00 +21°C° 1.7 mm 1 mps 670 mmHg 95%
    03:00 +21°C° 1.7 mm 1 mps 670 mmHg 96%
    04:00 +19°C° 1.7 mm 2 mps 670 mmHg 97%
    05:00 +20°C° 0.2 mm 2 mps 671 mmHg 96%
    06:00 +20°C° 0.2 mm 2 mps 671 mmHg 94%
    07:00 +20°C° 0.2 mm 3 mps 672 mmHg 93%
    08:00 +22°C° 0 mm 3 mps 672 mmHg 86%
    09:00 +25°C° 0 mm 3 mps 673 mmHg 78%
    10:00 +26°C° 0 mm 3 mps 673 mmHg 70%
    11:00 +27°C° 0.2 mm 3 mps 673 mmHg 66%
    12:00 +28°C° 0.2 mm 3 mps 672 mmHg 63%
    13:00 +29°C° 0.2 mm 2 mps 672 mmHg 59%
    14:00 +29°C° 0.3 mm 2 mps 671 mmHg 64%
    15:00 +28°C° 0.3 mm 2 mps 671 mmHg 69%
    16:00 +27°C° 0.3 mm 1 mps 670 mmHg 73%
    17:00 +26°C° 0.2 mm 1 mps 670 mmHg 78%
    18:00 +24°C° 0.2 mm 1 mps 670 mmHg 82%
    19:00 +23°C° 0.2 mm 1 mps 670 mmHg 87%
    20:00 +22°C° 0.1 mm 1 mps 671 mmHg 88%
    21:00 +22°C° 0.1 mm 1 mps 671 mmHg 89%
    22:00 +22°C° 0.1 mm 1 mps 671 mmHg 90%
    23:00 +21°C° 0 mm 1 mps 671 mmHg 91%

    Tomorrow, 28 April, Friday

    Time Temperature Precipitation Wind Pressure Humidity
    00:00 +21°C° 0 mm 1 mps 671 mmHg 93%
    01:00 +21°C° 0 mm 1 mps 671 mmHg 94%
    02:00 +20°C° 0 mm 1 mps 671 mmHg 95%
    03:00 +20°C° 0 mm 1 mps 671 mmHg 96%
    04:00 +20°C° 0 mm 1 mps 670 mmHg 97%
    05:00 +19°C° 0 mm 2 mps 671 mmHg 95%
    06:00 +20°C° 0 mm 2 mps 672 mmHg 93%
    07:00 +20°C° 0 mm 2 mps 672 mmHg 91%
    08:00 +22°C° 0 mm 3 mps 673 mmHg 82%
    09:00 +25°C° 0 mm 3 mps 673 mmHg 72%
    10:00 +27°C° 0 mm 3 mps 674 mmHg 63%
    11:00 +28°C° 0 mm 3 mps 673 mmHg 59%
    12:00 +29°C° 0 mm 3 mps 673 mmHg 55%
    13:00 +30°C° 0 mm 2 mps 672 mmHg 51%
    14:00 +29°C° 0 mm 2 mps 672 mmHg 54%
    15:00 +29°C° 0 mm 2 mps 671 mmHg 57%
    16:00 +29°C° 0 mm 1 mps 670 mmHg 59%
    17:00 +27°C° 0 mm 1 mps 671 mmHg 65%
    18:00 +25°C° 0 mm 1 mps 671 mmHg 70%
    19:00 +23°C° 0 mm 1 mps 671 mmHg 76%
    20:00 +23°C° 0 mm 1 mps 671 mmHg 78%
    21:00 +22°C° 0 mm 1 mps 672 mmHg 80%
    22:00 +22°C° 0 mm 1 mps 672 mmHg 82%
    23:00 +21°C° 0 mm 1 mps 672 mmHg 83%

    Day after tomorrow, 29 April, Saturday

    Time Temperature Precipitation Wind Pressure Humidity
    00:00 +21°C° 0 mm 1 mps 672 mmHg 84%
    01:00 +20°C° 0 mm 1 mps 671 mmHg 85%
    02:00 +20°C° 0 mm 1 mps 671 mmHg 86%
    03:00 +19°C° 0 mm 2 mps 671 mmHg 86%
    04:00 +18°C° 0 mm 2 mps 671 mmHg 87%
    05:00 +19°C° 0 mm 2 mps 671 mmHg 86%
    06:00 +19°C° 0 mm 3 mps 672 mmHg 84%
    07:00 +20°C° 0 mm 3 mps 673 mmHg 83%
    08:00 +22°C° 0 mm 3 mps 673 mmHg 75%
    09:00 +25°C° 0 mm 3 mps 674 mmHg 68%
    10:00 +27°C° 0 mm 3 mps 675 mmHg 61%
    11:00 +28°C° 0 mm 3 mps 674 mmHg 57%
    12:00 +29°C° 0 mm 3 mps 673 mmHg 53%
    13:00 +30°C° 0 mm 2 mps 673 mmHg 50%
    14:00 +29°C° 0 mm 2 mps 672 mmHg 52%
    15:00 +29°C° 0 mm 2 mps 672 mmHg 54%
    16:00 +29°C° 0 mm 1 mps 671 mmHg 56%
    17:00 +27°C° 0 mm 1 mps 671 mmHg 61%
    18:00 +25°C° 0 mm 1 mps 671 mmHg 67%
    19:00 +23°C° 0 mm 1 mps 671 mmHg 72%
    20:00 +22°C° 0 mm 1 mps 671 mmHg 72%
    21:00 +22°C° 0 mm 1 mps 672 mmHg 72%
    22:00 +22°C° 0 mm 1 mps 672 mmHg 72%
    23:00 +22°C° 0 mm 1 mps 672 mmHg 72%

    30 April, Sunday

    Time Temperature Precipitation Wind Pressure Humidity
    00:00 +21°C° 0 mm 1 mps 671 mmHg 72%
    01:00 +21°C° 0 mm 1 mps 671 mmHg 72%
    02:00 +20°C° 0 mm 2 mps 671 mmHg 72%
    03:00 +19°C° 0 mm 2 mps 671 mmHg 72%
    04:00 +19°C° 0 mm 2 mps 671 mmHg 72%
    05:00 +19°C° 0 mm 2 mps 671 mmHg 72%
    06:00 +19°C° 0 mm 3 mps 672 mmHg 72%
    07:00 +20°C° 0 mm 3 mps 672 mmHg 73%
    08:00 +22°C° 0 mm 3 mps 673 mmHg 67%
    09:00 +25°C° 0 mm 4 mps 673 mmHg 61%
    10:00 +27°C° 0 mm 4 mps 674 mmHg 55%
    11:00 +28°C° 0 mm 4 mps 673 mmHg 51%
    12:00 +28°C° 0 mm 3 mps 672 mmHg 48%
    13:00 +29°C° 0 mm 3 mps 672 mmHg 45%
    14:00 +29°C° 0 mm 2 mps 671 mmHg 48%
    15:00 +28°C° 0 mm 2 mps 671 mmHg 51%
    16:00 +28°C° 0 mm 1 mps 671 mmHg 54%
    17:00 +26°C° 0 mm 1 mps 671 mmHg 58%
    18:00 +24°C° 0 mm 2 mps 671 mmHg 62%
    19:00 +21°C° 0 mm 2 mps 671 mmHg 67%
    20:00 +21°C° 0 mm 2 mps 671 mmHg 67%
    21:00 +20°C° 0 mm 2 mps 671 mmHg 67%
    22:00 +20°C° 0 mm 2 mps 671 mmHg 68%
    23:00 +19°C° 0 mm 2 mps 671 mmHg 69%

    1 May, Monday

    Time Temperature Precipitation Wind Pressure Humidity
    00:00 +19°C° 0 mm 2 mps 671 mmHg 69%
    01:00 +18°C° 0 mm 2 mps 670 mmHg 70%
    02:00 +18°C° 0 mm 2 mps 670 mmHg 71%
    03:00 +17°C° 0 mm 2 mps 670 mmHg 72%
    04:00 +17°C° 0 mm 2 mps 670 mmHg 73%
    05:00 +17°C° 0 mm 2 mps 671 mmHg 72%
    06:00 +18°C° 0 mm 3 mps 671 mmHg 72%
    07:00 +18°C° 0 mm 3 mps 672 mmHg 71%
    08:00 +20°C° 0 mm 3 mps 672 mmHg 65%
    09:00 +24°C° 0 mm 3 mps 673 mmHg 59%
    10:00 +26°C° 0 mm 4 mps 673 mmHg 53%
    11:00 +27°C° 0 mm 3 mps 673 mmHg 50%
    12:00 +28°C° 0 mm 3 mps 672 mmHg 47%
    13:00 +29°C° 0 mm 2 mps 671 mmHg 45%
    14:00 +29°C° 0 mm 2 mps 671 mmHg 47%
    15:00 +29°C° 0 mm 1 mps 671 mmHg 49%
    16:00 +28°C° 0 mm 1 mps 671 mmHg 52%
    17:00 +26°C° 0 mm 1 mps 670 mmHg 57%
    18:00 +24°C° 0 mm 1 mps 670 mmHg 63%
    19:00 +22°C° 0 mm 1 mps 670 mmHg 69%
    20:00 +21°C° 0 mm 1 mps 671 mmHg 72%
    21:00 +20°C° 0 mm 1 mps 671 mmHg 75%
    22:00 +20°C° 0 mm 1 mps 671 mmHg 79%
    23:00 +19°C° 0.1 mm 1 mps 671 mmHg 79%

    2 May, Tuesday

    Time Temperature Precipitation Wind Pressure Humidity
    00:00 +19°C° 0.1 mm 1 mps 670 mmHg 79%
    01:00 +19°C° 0.1 mm 1 mps 670 mmHg 80%
    02:00 +18°C° 0 mm 2 mps 670 mmHg 79%
    03:00 +17°C° 0 mm 2 mps 670 mmHg 79%
    04:00 +17°C° 0 mm 2 mps 670 mmHg 79%
    05:00 +17°C° 0 mm 2 mps 671 mmHg 78%
    06:00 +18°C° 0 mm 3 mps 671 mmHg 77%
    07:00 +18°C° 0 mm 3 mps 672 mmHg 76%
    08:00 +20°C° 0 mm 3 mps 672 mmHg 69%
    09:00 +24°C° 0 mm 3 mps 672 mmHg 62%
    10:00 +26°C° 0 mm 3 mps 673 mmHg 55%
    11:00 +27°C° 0 mm 3 mps 672 mmHg 52%
    12:00 +28°C° 0 mm 3 mps 671 mmHg 49%
    13:00 +29°C° 0 mm 2 mps 671 mmHg 45%
    14:00 +29°C° 0 mm 2 mps 671 mmHg 48%
    15:00 +28°C° 0 mm 2 mps 670 mmHg 50%
    16:00 +28°C° 0 mm 1 mps 670 mmHg 53%
    17:00 +26°C° 0 mm 1 mps 670 mmHg 59%
    18:00 +24°C° 0 mm 1 mps 670 mmHg 65%
    19:00 +22°C° 0 mm 1 mps 670 mmHg 71%
    20:00 +21°C° 0 mm 1 mps 670 mmHg 73%
    21:00 +21°C° 0 mm 1 mps 670 mmHg 76%
    22:00 +20°C° 0 mm 1 mps 671 mmHg 79%
    23:00 +20°C° 0 mm 1 mps 670 mmHg 79%
    Show more